K4FB Weather Reports


time (UTC)temp
C
wind
direction
speed
KPH
gust
KPH
rain 1hr
cm
rain 24hr
cm
rain mn
cm
humidity
%
barometer
mb
20260505094006 16 92 0.0 4.8 0.00 0.00 0.00 92 1015.4
20260505093510 16 92 0.0 1.6 0.00 0.00 0.00 91 1015.4
20260505093026 16 92 0.0 1.6 0.00 0.00 0.00 91 1015.3
20260505092504 16 92 0.0 0.0 0.00 0.00 0.00 91 1015.3
20260505092008 16 92 0.0 0.0 0.00 0.00 0.00 91 1015.4
20260505091525 16 92 0.0 0.0 0.00 0.00 0.00 91 1015.4
20260505091004 17 92 0.0 0.0 0.00 0.00 0.00 91 1015.4
20260505090503 17 92 0.0 0.0 0.00 0.00 0.00 91 1015.3
20260505090035 17 92 0.0 0.0 0.00 0.00 0.00 90 1015.3
20260505085510 17 92 0.0 0.0 0.00 0.00 0.00 90 1015.3
20260505085010 17 92 0.0 0.0 0.00 0.00 0.00 90 1015.3
20260505084520 17 92 0.0 0.0 0.00 0.00 0.00 90 1015.2
20260505084007 17 92 0.0 0.0 0.00 0.00 0.00 89 1015.4
20260505083512 17 92 0.0 0.0 0.00 0.00 0.00 89 1015.4
20260505083017 17 92 0.0 0.0 0.00 0.00 0.00 89 1015.3
20260505082508 17 92 0.0 0.0 0.00 0.00 0.00 89 1015.2
20260505082010 17 92 0.0 0.0 0.00 0.00 0.00 89 1015.1
20260505081533 17 92 0.0 3.2 0.00 0.00 0.00 89 1015.1
20260505081005 17 92 0.0 3.2 0.00 0.00 0.00 89 1015.2
20260505080506 17 92 0.0 1.6 0.00 0.00 0.00 89 1015.2
20260505080017 17 91 0.0 4.8 0.00 0.00 0.00 89 1015.2
20260505075503 17 89 0.0 4.8 0.00 0.00 0.00 89 1015.2
20260505075007 17 72 1.6 4.8 0.00 0.00 0.00 89 1015.4
20260505074524 17 73 0.0 6.4 0.00 0.00 0.00 89 1015.4
20260505074007 17 75 1.6 6.4 0.00 0.00 0.00 89 1015.4
20260505073040 17 82 0.0 3.2 0.00 0.00 0.00 88 1015.5
20260505072513 17 109 0.0 1.6 0.00 0.00 0.00 88 1015.5
20260505072007 18 111 0.0 1.6 0.00 0.00 0.00 87 1015.5
20260505071521 18 114 0.0 0.0 0.00 0.00 0.00 86 1015.4
20260505071007 18 114 0.0 0.0 0.00 0.00 0.00 86 1015.4
20260505070512 18 114 0.0 0.0 0.00 0.00 0.00 86 1015.4
20260505070022 18 114 0.0 1.6 0.00 0.00 0.00 85 1015.5
20260505065505 18 114 0.0 1.6 0.00 0.00 0.00 85 1015.5
20260505065006 18 114 0.0 3.2 0.00 0.00 0.00 85 1015.5
20260505064535 18 114 0.0 3.2 0.00 0.00 0.00 85 1015.7
20260505064007 19 106 0.0 3.2 0.00 0.00 0.00 84 1015.9
20260505063509 19 109 0.0 4.8 0.00 0.00 0.00 84 1016.0
20260505063022 19 101 1.6 11.3 0.00 0.00 0.00 84 1015.9
20260505062011 19 72 1.6 6.4 0.00 0.00 0.00 84 1016.0
20260505061539 19 87 1.6 9.7 0.00 0.00 0.00 84 1015.9
20260505061003 19 73 1.6 8.0 0.00 0.00 0.00 84 1016.1
20260505060505 19 97 3.2 9.7 0.00 0.00 0.00 84 1016.0
20260505055506 20 79 1.6 8.0 0.00 0.00 0.00 83 1016.1
20260505055007 20 69 1.6 8.0 0.00 0.00 0.00 83 1016.3
20260505054007 20 64 1.6 12.9 0.00 0.00 0.00 83 1016.3
20260505053508 20 65 3.2 12.9 0.00 0.00 0.00 83 1016.4
20260505053005 20 82 1.6 11.3 0.00 0.00 0.00 83 1016.4
20260505052504 20 59 4.8 11.3 0.00 0.00 0.00 83 1016.5
20260505052004 20 81 3.2 8.0 0.00 0.00 0.00 83 1016.5
20260505051507 20 71 1.6 6.4 0.00 0.00 0.00 83 1016.7
20260505051006 20 70 1.6 6.4 0.00 0.00 0.00 83 1016.5
20260505050506 20 81 3.2 6.4 0.00 0.00 0.00 83 1016.6
20260505041511 20 71 1.6 6.4 0.00 0.00 0.00 82 1017.2
20260505041004 20 60 1.6 4.8 0.00 0.00 0.00 82 1017.1
20260505040503 20 69 1.6 6.4 0.00 0.00 0.00 81 1017.2
20260505040011 20 68 3.2 9.7 0.00 0.00 0.00 81 1017.0
20260505035502 20 71 1.6 11.3 0.00 0.00 0.00 81 1017.0
20260505035003 20 92 3.2 11.3 0.00 0.00 0.00 80 1017.0
20260505034513 20 93 3.2 11.3 0.00 0.00 0.00 80 1017.0
20260505034006 20 107 1.6 6.4 0.00 0.00 0.00 79 1017.1
20260505033503 20 71 1.6 6.4 0.00 0.00 0.00 79 1017.0
20260505033020 20 90 1.6 6.4 0.00 0.00 0.00 79 1017.1
20260505032506 20 74 0.0 8.0 0.00 0.00 0.00 78 1017.2
20260505032003 20 80 1.6 8.0 0.00 0.00 0.00 78 1017.3
20260505031535 20 86 3.2 9.7 0.00 0.00 0.00 78 1017.2
20260505031009 20 70 1.6 9.7 0.00 0.00 0.00 78 1017.1
20260505030503 20 66 1.6 9.7 0.00 0.00 0.00 77 1017.2
20260505030009 20 96 4.8 11.3 0.00 0.00 0.00 77 1017.0
20260505025504 20 71 3.2 11.3 0.00 0.00 0.00 76 1016.9
20260505025004 20 89 4.8 9.7 0.00 0.00 0.00 76 1016.9
20260505024519 20 34 3.2 12.9 0.00 0.00 0.00 76 1017.0
20260505024003 20 62 4.8 12.9 0.00 0.00 0.00 76 1017.1
20260505023503 21 86 4.8 11.3 0.00 0.00 0.00 75 1017.1
20260505023010 21 76 4.8 14.5 0.00 0.00 0.00 75 1017.1
20260505022503 21 106 4.8 14.5 0.00 0.00 0.00 75 1017.0
20260505022007 21 76 4.8 14.5 0.00 0.00 0.00 74 1016.9
20260505021526 21 74 3.2 9.7 0.00 0.00 0.00 74 1016.9
20260505021006 21 111 3.2 9.7 0.00 0.00 0.00 73 1016.8
20260505020028 21 81 3.2 11.3 0.00 0.00 0.00 72 1016.7
20260505015513 21 97 4.8 16.1 0.00 0.00 0.00 72 1016.7
20260505015004 21 71 6.4 16.1 0.00 0.00 0.00 72 1016.6
20260505014507 21 79 4.8 14.5 0.00 0.00 0.00 72 1016.6
20260505014003 21 102 4.8 14.5 0.00 0.00 0.00 72 1016.5
20260505013504 21 67 4.8 14.5 0.00 0.00 0.00 71 1016.8
20260505013012 21 78 1.6 16.1 0.00 0.00 0.00 72 1016.6
20260505012503 21 87 6.4 16.1 0.00 0.00 0.00 71 1016.5
20260505012007 21 92 3.2 11.3 0.00 0.00 0.00 71 1016.4
20260505011511 21 93 4.8 14.5 0.00 0.00 0.00 70 1016.5
20260505011006 22 115 6.4 14.5 0.00 0.00 0.00 70 1016.3
20260505010508 22 90 4.8 11.3 0.00 0.00 0.00 70 1016.2
20260505005008 22 82 4.8 12.9 0.00 0.00 0.00 69 1016.2
20260505004542 22 88 6.4 14.5 0.00 0.00 0.00 69 1016.2
20260505004003 22 93 6.4 16.1 0.00 0.00 0.00 68 1016.2
20260505003503 22 83 4.8 17.7 0.00 0.00 0.00 68 1016.3
20260505003012 22 75 8.0 17.7 0.00 0.00 0.00 67 1016.1
20260505002509 22 108 8.0 16.1 0.00 0.00 0.00 68 1016.0
20260505002012 22 142 6.4 16.1 0.00 0.00 0.00 67 1015.9
20260505001514 23 105 4.8 14.5 0.00 0.00 0.00 68 1015.9
20260505001012 23 122 6.4 14.5 0.00 0.00 0.00 67 1015.8
20260505000503 23 113 6.4 20.9 0.00 0.00 0.00 66 1015.5
20260505000034 23 75 6.4 20.9 0.00 0.00 0.00 66 1015.5
20260504235507 23 79 3.2 16.1 0.00 0.00 0.00 66 1015.5
20260504235003 23 95 8.0 16.1 0.00 0.00 0.00 65 1015.6
20260504234515 24 92 1.6 16.1 0.00 0.00 0.00 65 1015.4
20260504234008 24 71 6.4 16.1 0.00 0.00 0.00 64 1015.4
20260504233513 24 61 4.8 20.9 0.00 0.00 0.00 63 1015.3
20260504233014 24 132 6.4 24.1 0.00 0.00 0.00 62 1015.2
20260504232505 25 113 12.9 24.1 0.00 0.00 0.00 61 1015.2
20260504232004 25 121 9.7 22.5 0.00 0.00 0.00 61 1015.2
20260504231510 25 67 9.7 22.5 0.00 0.00 0.00 61 1015.3
20260504231004 25 80 4.8 22.5 0.00 0.00 0.00 61 1015.2
20260504230507 25 95 9.7 22.5 0.00 0.00 0.00 59 1015.1
20260504230016 26 69 8.0 20.9 0.00 0.00 0.00 60 1015.0
20260504225503 26 65 14.5 20.9 0.00 0.00 0.00 59 1015.0
20260504225012 26 98 8.0 19.3 0.00 0.00 0.00 59 1015.0
20260504224521 26 97 8.0 19.3 0.00 0.00 0.00 59 1015.2
20260504224012 26 59 9.7 19.3 0.00 0.00 0.00 59 1015.2
20260504223507 26 57 8.0 17.7 0.00 0.00 0.00 58 1015.2
20260504223020 26 97 6.4 17.7 0.00 0.00 0.00 57 1015.1
20260504222510 26 119 9.7 22.5 0.00 0.00 0.00 56 1015.2
20260504222003 26 94 9.7 22.5 0.00 0.00 0.00 56 1015.2
20260504221518 26 98 9.7 20.9 0.00 0.00 0.00 57 1015.1
20260504221008 27 64 9.7 20.9 0.00 0.00 0.00 56 1015.1
20260504220505 27 111 12.9 20.9 0.00 0.00 0.00 54 1015.1
20260504220016 28 88 9.7 22.5 0.00 0.00 0.00 52 1015.1
20260504215507 28 31 4.8 22.5 0.00 0.00 0.00 52 1015.1
20260504215008 28 34 9.7 25.7 0.00 0.00 0.00 52 1015.1
20260504213508 28 67 6.4 20.9 0.00 0.00 0.00 53 1015.0
20260504213023 28 23 11.3 19.3 0.00 0.00 0.00 53 1015.0
20260504212507 28 71 9.7 22.5 0.00 0.00 0.00 53 1015.0
20260504211525 28 66 6.4 25.7 0.00 0.00 0.00 52 1014.9
20260504211007 28 113 11.3 30.6 0.00 0.00 0.00 54 1015.1
20260504210507 28 83 12.9 30.6 0.00 0.00 0.00 51 1015.0
20260504210022 28 28 6.4 24.1 0.00 0.00 0.00 50 1015.0
20260504205505 28 115 8.0 20.9 0.00 0.00 0.00 51 1015.0
20260504205008 28 40 11.3 24.1 0.00 0.00 0.00 52 1015.1
20260504204516 28 98 12.9 24.1 0.00 0.00 0.00 54 1015.1
20260504204010 28 60 9.7 25.7 0.00 0.00 0.00 51 1015.1
20260504203514 28 41 9.7 25.7 0.00 0.00 0.00 52 1015.0
20260504203018 28 30 14.5 20.9 0.00 0.00 0.00 51 1015.1
20260504202513 28 63 8.0 29.0 0.00 0.00 0.00 53 1015.3
20260504202012 28 47 12.9 29.0 0.00 0.00 0.00 50 1015.2
20260504201518 28 75 6.4 20.9 0.00 0.00 0.00 51 1015.2
20260504200509 29 80 11.3 27.4 0.00 0.00 0.00 49 1015.4
20260504200025 30 64 12.9 27.4 0.00 0.00 0.00 48 1015.4
20260504195507 30 83 11.3 25.7 0.00 0.00 0.00 51 1015.3
20260504194518 29 46 8.0 25.7 0.00 0.00 0.00 49 1015.6
20260504194008 29 43 14.5 22.5 0.00 0.00 0.00 51 1015.7
20260504193508 28 49 8.0 24.1 0.00 0.00 0.00 52 1015.7
20260504193019 28 80 8.0 24.1 0.00 0.00 0.00 51 1015.8
20260504192508 29 34 9.7 20.9 0.00 0.00 0.00 49 1015.7
20260504191526 29 103 12.9 20.9 0.00 0.00 0.00 48 1015.8
20260504191007 29 103 9.7 19.3 0.00 0.00 0.00 48 1015.9
20260504190511 29 105 8.0 22.5 0.00 0.00 0.00 49 1015.9
20260504185509 30 85 6.4 19.3 0.00 0.00 0.00 50 1016.2
20260504184522 30 103 8.0 19.3 0.00 0.00 0.00 51 1016.2
20260504183504 29 360 9.7 24.1 0.00 0.00 0.00 50 1016.5
20260504183017 29 78 11.3 24.1 0.00 0.00 0.00 50 1016.5
20260504182508 30 53 11.3 20.9 0.00 0.00 0.00 48 1016.6
20260504182011 29 50 6.4 20.9 0.00 0.00 0.00 49 1016.6
20260504181522 29 40 8.0 24.1 0.00 0.00 0.00 47 1016.7
20260504180513 29 58 6.4 17.7 0.00 0.00 0.00 51 1016.8
20260504180025 29 53 6.4 17.7 0.00 0.00 0.00 49 1016.8
20260504175512 29 57 9.7 19.3 0.00 0.00 0.00 51 1017.0
20260504174525 29 36 4.8 19.3 0.00 0.00 0.00 47 1017.2
20260504173508 28 75 6.4 17.7 0.00 0.00 0.00 48 1017.2
20260504172504 28 101 6.4 20.9 0.00 0.00 0.00 53 1017.2
20260504172004 28 80 4.8 20.9 0.00 0.00 0.00 51 1017.2
20260504171510 28 40 9.7 20.9 0.00 0.00 0.00 50 1017.2
20260504171005 28 11 11.3 20.9 0.00 0.00 0.00 46 1017.2
20260504170505 28 9 6.4 19.3 0.00 0.00 0.00 49 1017.4
20260504141007 24 16 11.3 22.5 0.00 0.00 0.00 63 1018.1
20260504130504 21 352 6.4 22.5 0.00 0.00 0.00 72 1017.8
20260504110506 16 342 1.6 8.0 0.00 0.00 0.00 88 1016.9
20260504100503 16 351 0.0 4.8 0.00 0.00 0.00 87 1016.5